SCP
0 -0 -0 -0 -0 -0 -0 -0 -0 0 0 0 0 0 0 0 0 0 0 0 -0 0 0 0 0 0 0 0 0 0 0 0 0 0 -0 -0 -0 -0 -0 -0 -0 -0 -0
-0 -0 -0 -0 -0 -0 -0 -0 -0 -0 0 0 0 0 0 0 -0 0 0 0 0 0 0 0 0 0 0 0 0 0 0 0 0 0 0 0 -0 -0 -0 -0 -0 -0 -0
0 -0 -0 -0 -0 -0 -0 -0 -0 -0 -0 -0 -0 0 0 -0 -0 -0 0 0 0 0 0 0 0 0 0 0 0 0 0 0 0 0 0 0 0 -0 -0 -0 -0 -0 -0
0 -0 -0 -0 -0 -0 -0 -0 -0 -0 -0 -0 -0 -0 -0 -0 0 0 0 0 0 0 0 0 0 0 0 0 0 0 0 0 0 0 0 0 0 0 0 0 0 0 0
0 -0 -0 -0 -0 -0 -0 -0 -0 -0 -0 -0 -0 -0 -0 -0 0 0 0 0 0 0 0 0 0 0 0 0 0 0 0 0 0 0 0 0 0 0 0 0 0 0 0
0 0 -0 -0 -0 -0 -0 -0 -0 -0 -0 -0 -0 -0 -0 -0 -0 -0 0 0 0 0 0 0 0 0 0 0 0 0 0 0 0 0 0 0 0 0 0 0 0 0 0
0 0 0 -0 -0 -1 -0 -0 -0 -0 -0 -0 -0 -0 -0 -0 -0 0 0 0 0 0 0 0 0 0 0 0 0 0 0 0 0 0 0 0 0 0 0 0 0 0 0
0 0 0 0 -0 -0 -0 -0 -0 -0 -0 -0 0 0 0 0 0 0 0 0 0 0 0 0 0 0 0 0 0 0 0 0 0 0 0 0 0 0 0 0 0 0 0
0 0 0 0 0 0 0 -0 -0 -0 -0 -0 0 0 0 0 0 0 0 0 0 0 0 0 0 0 0 0 0 0 0 0 0 0 0 0 0 0 0 0 0 0 0
0 0 0 0 0 0 0 0 0 0 0 0 0 0 0 0 0 0 0 0 0 0 0 0 0 0 0 0 0 0 0 0 0 0 0 0 0 0 0 0 0 0 0
0 0 0 0 0 0 0 0 0 0 0 0 0 0 0 0 0 0 0 0 0 0 0 0 0 0 0 0 0 0 0 0 0 0 0 0 0 0 0 0 0 0 0
0 0 0 0 0 0 0 0 0 0 0 0 0 0 0 0 0 0 0 0 0 0 0 0 0 0 0 0 0 0 0 0 0 0 0 0 0 0 0 0 0 0 0
0 0 0 0 0 0 0 0 0 0 0 0 0 0 0 0 0 0 0 0 0 0 0 0 0 0 0 0 0 0 0 0 0 0 0 0 0 0 0 0 0 0 0
0 0 0 0 0 0 0 0 0 0 0 0 0 0 0 0 0 0 0 0 0 0 0 0 0 0 0 0 0 0 0 0 0 0 0 0 0 0 0 0 0 0 0
0 0 0 0 0 0 0 0 0 0 0 0 0 0 0 0 0 0 0 0 0 0 0 0 0 0 0 0 0 0 0 0 0 0 0 0 0 0 0 0 0 0 0
0 0 0 0 0 0 0 0 0 0 0 0 0 0 0 0 0 0 0 0 0 0 0 0 0 0 0 0 0 0 0 0 0 0 0 0 0 0 0 0 0 0 0
0 0 0 0 0 0 0 0 0 0 0 0 0 0 0 0 0 0 0 0 0 0 0 0 0 0 0 0 0 0 0 0 0 0 0 0 0 0 0 0 0 0 0
0 0 0 0 0 0 0 0 0 0 0 0 0 0 0 0 0 0 0 0 0 0 0 0 0 0 0 0 0 0 0 0 0 0 0 0 0 0 0 0 0 0 0
0 0 0 0 0 0 0 0 0 0 0 0 0 0 0 0 0 0 0 0 0 0 0 0 0 0 0 0 0 0 0 0 0 0 0 0 0 0 0 0 0 0 0
0 0 0 0 0 0 0 0 0 0 0 0 0 0 0 0 0 0 0 0 0 0 0 0 0 0 0 0 0 0 0 0 0 0 0 0 0 0 0 0 0 0 0
0 0 0 0 0 0 0 0 0 0 0 0 0 0 0 0 0 0 0 0 0 0 0 0 0 0 0 0 0 0 0 0 0 0 0 0 0 0 0 0 0 0 0
0 0 0 0 0 0 0 0 0 0 0 0 0 0 0 0 0 0 0 0 0 0 0 0 0 0 0 0 0 0 0 0 0 0 0 0 0 0 0 0 0 0 0
0 0 0 0 0 0 0 0 0 0 0 0 0 0 0 0 0 0 0 0 0 0 0 0 0 0 0 0 0 0 0 0 0 0 0 0 0 0 0 0 0 0 0
0 0 0 0 0 0 0 0 0 0 0 0 0 0 0 0 0 0 0 0 0 0 0 0 0 0 0 0 0 0 0 0 0 0 0 0 0 0 0 0 0 0 0
0 0 0 0 0 0 0 0 0 0 0 0 0 0 0 0 0 0 0 0 0 0 0 0 0 0 0 0 0 0 0 0 0 0 0 0 0 0 0 0 0 0 0
0 0 0 0 0 0 0 0 0 0 0 0 0 0 0 0 0 0 0 0 0 0 0 0 0 0 0 0 0 0 0 0 0 0 0 0 0 0 0 0 0 0 0
Wind_Speed_500mb
22 39 40 39 36 35 36 33 31 28 23 17 13 12 10 8 8 12 13 7 5 6 9 8 8 5 3 4 5 8 11 14 14 9 12 11 9 13 17 19 19 19 17
19 36 39 39 37 36 35 33 31 27 23 18 15 13 13 13 12 12 10 6 6 7 7 8 7 6 4 3 4 6 10 12 10 5 3 5 4 5 9 12 14 15 17
17 31 39 38 37 36 33 29 28 23 19 15 13 13 13 13 12 11 8 8 9 8 5 4 3 4 4 3 3 4 6 8 7 5 0 2 3 2 3 4 5 6 8
10 25 37 39 37 36 30 27 27 23 19 16 14 13 14 14 14 12 11 9 7 7 7 4 2 1 4 5 5 6 9 7 7 4 3 1 2 1 1 3 4 4 5
7 16 32 37 38 35 33 30 28 25 22 20 18 17 17 18 16 14 12 12 11 10 10 9 7 6 7 6 7 10 12 10 11 8 7 4 1 3 4 5 7 7 7
5 11 23 36 38 37 37 35 32 29 26 22 21 20 20 17 15 14 13 16 17 17 14 13 11 11 12 12 13 16 16 15 15 15 14 13 12 11 8 5 2 9 10
5 10 17 30 38 40 39 39 36 33 30 26 23 20 21 22 18 17 16 19 21 18 14 15 14 13 14 15 17 20 20 20 20 20 19 20 19 19 15 16 4 3 4
6 9 16 24 35 41 42 43 40 37 34 30 26 25 24 23 22 19 20 20 23 19 15 15 14 14 15 15 15 17 17 18 19 20 20 20 21 20 19 18 17 13 13
10 13 16 22 30 39 42 42 41 40 38 34 31 30 29 31 28 24 22 22 23 21 17 16 16 15 15 13 12 12 11 11 12 14 15 16 18 18 18 18 17 17 18
18 16 18 22 28 34 40 43 42 41 40 38 36 35 34 34 33 30 26 23 23 21 20 18 17 16 15 14 14 14 14 13 14 15 15 16 18 18 18 18 19 21 22
27 25 22 23 28 32 36 39 42 45 44 43 42 40 38 41 39 35 30 27 25 22 22 20 20 19 19 18 18 18 17 17 17 17 18 19 19 19 18 20 20 21 23
36 32 29 27 28 33 35 38 41 45 45 45 44 43 41 45 42 39 34 33 31 26 25 24 23 22 24 22 21 22 21 20 19 19 18 18 19 19 19 20 21 21 24
29 30 34 34 32 31 35 36 40 47 45 48 46 43 41 44 47 43 40 37 35 33 30 30 28 25 27 26 25 25 24 23 21 20 19 19 19 20 20 20 21 21 24
21 24 30 31 34 34 34 34 34 41 47 49 50 47 45 45 50 50 45 42 40 39 35 33 31 30 32 31 30 28 28 26 24 23 21 21 21 22 22 21 22 23 24
20 27 31 33 32 31 31 33 33 34 39 46 51 50 50 49 51 51 51 48 44 45 40 37 35 34 36 37 36 34 32 30 29 27 25 23 23 23 23 25 25 25 24
16 19 28 35 35 34 32 28 31 33 30 31 39 42 46 54 54 54 52 51 50 46 35 35 37 39 40 42 42 41 39 37 35 33 31 29 27 26 26 26 27 27 25
25 24 21 24 32 34 33 31 32 30 29 27 25 27 30 34 44 42 47 53 53 53 45 39 40 43 45 48 48 48 46 45 43 40 38 35 32 30 29 29 30 30 23
19 25 26 18 19 26 24 25 28 30 28 25 25 27 29 32 37 41 46 48 46 54 56 49 46 46 48 51 52 53 53 52 49 47 45 42 39 36 33 32 31 31 32
17 16 19 15 7 9 12 11 15 19 21 21 22 24 25 29 34 38 41 41 43 47 51 49 49 48 52 52 53 54 56 58 56 55 52 50 47 42 40 39 37 34 34
19 17 16 17 12 7 9 9 10 14 15 13 17 22 23 23 28 31 34 37 40 42 47 47 48 48 52 52 54 56 58 60 61 62 62 61 56 50 47 45 43 41 39
33 31 29 17 20 11 8 5 5 5 7 6 13 19 20 25 26 23 23 24 27 33 36 39 40 44 46 52 53 59 65 65 66 66 68 68 64 59 56 53 49 47 45
51 52 50 47 39 33 24 20 16 10 3 2 6 12 15 17 22 24 22 21 21 22 26 31 39 42 43 43 50 56 60 63 66 64 72 72 69 67 65 61 57 54 52
54 55 56 55 54 49 41 27 17 11 7 3 5 5 10 16 20 23 25 29 29 28 34 38 37 34 39 43 46 45 25 17 30 28 34 55 69 75 72 68 65 62 60
51 49 51 51 53 53 48 46 44 40 36 31 23 20 20 20 21 23 25 29 31 37 41 44 42 40 40 42 45 49 55 60 69 66 61 48 47 44 58 71 72 69 67
44 45 47 46 46 47 45 47 47 43 38 32 27 24 24 24 22 22 23 22 25 31 34 39 44 48 48 47 45 47 51 56 60 71 79 76 73 68 64 63 59 64 68
34 32 33 30 35 32 29 28 28 25 24 20 21 21 23 22 22 23 25 24 22 23 26 29 28 33 44 50 51 51 51 52 57 63 72 83 84 84 79 75 72 73 68
Wind_Direction_500mb
179 175 182 179 181 179 179 176 179 183 183 181 173 167 168 173 169 143 139 138 96 17 355 29 39 60 124 144 148 148 150 147 138 132 103 101 96 85 90 88 89 79 80
188 177 186 188 189 187 191 195 192 191 190 188 186 186 188 185 180 178 185 212 272 305 342 8 38 60 98 159 185 179 170 167 169 155 131 125 121 90 93 103 103 104 92
186 188 188 196 197 200 203 207 203 205 206 210 211 202 199 203 201 210 224 250 275 282 305 354 60 88 101 127 170 201 204 198 199 197 176 157 119 147 113 118 129 126 119
178 193 194 199 204 207 208 202 203 208 217 227 234 229 219 215 220 231 259 277 288 276 288 283 274 165 176 173 183 195 214 216 224 227 207 275 65 334 230 227 222 186 160
186 190 200 203 208 213 215 213 213 222 230 234 231 225 227 226 230 241 270 278 278 280 259 252 252 252 242 237 221 219 229 225 237 235 244 242 172 345 313 280 237 229 213
222 201 200 209 214 219 221 223 227 233 233 233 232 234 234 229 241 261 271 274 281 282 256 257 258 260 262 254 247 241 242 238 242 246 255 258 251 264 292 358 298 239 221
287 223 212 214 218 223 228 230 233 236 237 237 238 238 250 255 259 263 264 271 285 281 269 266 264 268 266 263 252 249 246 245 244 247 250 257 259 263 262 264 195 198 183
293 243 231 220 221 225 228 230 233 236 238 238 238 236 249 255 260 262 266 274 291 287 280 275 269 270 270 265 256 249 248 247 250 254 257 261 266 265 266 271 275 254 271
308 272 250 237 228 229 233 236 236 236 238 239 238 240 246 252 260 262 269 282 296 297 291 286 280 276 271 259 251 254 254 253 261 267 272 272 273 281 283 282 278 271 268
318 306 279 257 244 238 237 237 239 239 239 239 238 240 246 251 258 262 266 270 282 294 290 287 277 269 255 249 253 259 265 266 270 272 274 276 282 285 285 283 283 281 277
301 294 289 272 255 248 245 244 241 239 239 240 239 240 247 251 254 259 268 269 276 291 283 280 271 264 255 253 257 263 266 267 271 275 279 283 284 284 284 284 281 281 283
292 283 280 282 270 256 251 248 244 241 234 235 237 239 244 251 251 254 260 265 271 279 283 276 269 260 253 254 257 264 269 272 274 275 274 275 280 283 284 283 282 281 279
284 278 271 273 269 263 259 255 250 250 246 235 236 238 241 249 247 249 257 257 265 276 284 282 271 262 256 256 258 262 267 270 273 275 278 281 283 284 283 281 281 280 275
286 268 266 261 260 260 259 260 260 257 257 249 238 239 241 245 246 253 255 257 265 271 276 280 278 265 258 255 256 259 265 270 272 275 279 284 290 292 294 293 289 286 282
280 281 275 267 258 250 259 262 265 265 263 258 254 252 250 249 247 253 259 261 262 270 272 278 278 270 265 261 260 261 262 265 267 270 274 279 284 290 295 298 298 295 294
300 280 273 267 260 241 242 254 264 271 277 272 264 265 259 256 256 267 259 261 265 271 283 279 279 275 266 261 259 260 261 263 263 266 270 274 280 286 288 291 294 294 291
312 311 298 283 258 245 238 241 254 269 280 287 288 277 269 266 254 264 265 267 271 276 279 281 282 281 275 269 264 262 261 261 262 264 267 269 272 275 280 283 285 287 278
306 301 309 304 275 245 236 240 244 256 269 281 295 278 270 267 265 268 270 270 276 278 272 275 278 282 282 276 271 267 264 262 262 261 262 264 266 268 270 273 273 275 274
348 333 316 319 275 230 214 227 233 246 255 260 265 268 268 270 273 275 277 277 278 274 275 274 277 280 287 280 275 270 268 266 263 261 261 261 260 262 265 267 270 270 267
37 37 38 46 62 107 158 177 199 225 234 248 264 263 264 266 265 273 277 279 276 275 272 267 276 281 289 286 280 275 271 268 265 262 260 260 260 260 261 263 266 269 270
67 65 59 56 65 88 114 155 193 235 265 266 301 283 272 269 264 262 266 279 290 287 282 283 283 283 284 289 286 284 282 280 272 265 261 260 261 261 260 260 261 262 263
65 66 65 64 62 61 63 74 78 73 72 170 261 306 312 303 286 286 283 282 281 282 285 290 293 292 285 287 286 292 293 289 284 280 269 264 264 263 262 261 260 260 261
67 62 60 60 60 58 56 54 56 49 55 67 323 300 308 304 301 299 290 288 291 289 283 278 278 288 289 286 287 282 289 291 310 307 294 272 264 260 262 261 260 260 260
65 60 57 52 51 49 46 46 45 48 46 38 25 6 344 327 312 297 283 276 282 285 289 290 290 286 285 283 280 283 284 282 281 289 286 281 294 296 283 269 265 263 261
70 61 58 52 45 41 34 32 29 31 37 41 41 34 25 13 2 349 336 314 294 284 287 287 287 285 281 280 279 278 282 282 282 280 285 286 282 281 280 284 289 279 269
74 61 45 36 28 27 21 23 21 29 25 16 16 16 21 20 23 26 23 7 348 327 316 314 312 303 283 281 278 275 276 283 284 281 284 287 287 284 280 279 277 275 277
Wind_Speed_850mb
22 39 40 39 36 35 36 33 31 28 23 17 13 12 10 8 8 12 13 7 5 6 9 8 8 5 3 4 5 8 11 14 14 9 12 11 9 13 17 19 19 19 17
19 36 39 39 37 36 35 33 31 27 23 18 15 13 13 13 12 12 10 6 6 7 7 8 7 6 4 3 4 6 10 12 10 5 3 5 4 5 9 12 14 15 17
17 31 39 38 37 36 33 29 28 23 19 15 13 13 13 13 12 11 8 8 9 8 5 4 3 4 4 3 3 4 6 8 7 5 0 2 3 2 3 4 5 6 8
10 25 37 39 37 36 30 27 27 23 19 16 14 13 14 14 14 12 11 9 7 7 7 4 2 1 4 5 5 6 9 7 7 4 3 1 2 1 1 3 4 4 5
7 16 32 37 38 35 33 30 28 25 22 20 18 17 17 18 16 14 12 12 11 10 10 9 7 6 7 6 7 10 12 10 11 8 7 4 1 3 4 5 7 7 7
5 11 23 36 38 37 37 35 32 29 26 22 21 20 20 17 15 14 13 16 17 17 14 13 11 11 12 12 13 16 16 15 15 15 14 13 12 11 8 5 2 9 10
5 10 17 30 38 40 39 39 36 33 30 26 23 20 21 22 18 17 16 19 21 18 14 15 14 13 14 15 17 20 20 20 20 20 19 20 19 19 15 16 4 3 4
6 9 16 24 35 41 42 43 40 37 34 30 26 25 24 23 22 19 20 20 23 19 15 15 14 14 15 15 15 17 17 18 19 20 20 20 21 20 19 18 17 13 13
10 13 16 22 30 39 42 42 41 40 38 34 31 30 29 31 28 24 22 22 23 21 17 16 16 15 15 13 12 12 11 11 12 14 15 16 18 18 18 18 17 17 18
18 16 18 22 28 34 40 43 42 41 40 38 36 35 34 34 33 30 26 23 23 21 20 18 17 16 15 14 14 14 14 13 14 15 15 16 18 18 18 18 19 21 22
27 25 22 23 28 32 36 39 42 45 44 43 42 40 38 41 39 35 30 27 25 22 22 20 20 19 19 18 18 18 17 17 17 17 18 19 19 19 18 20 20 21 23
36 32 29 27 28 33 35 38 41 45 45 45 44 43 41 45 42 39 34 33 31 26 25 24 23 22 24 22 21 22 21 20 19 19 18 18 19 19 19 20 21 21 24
29 30 34 34 32 31 35 36 40 47 45 48 46 43 41 44 47 43 40 37 35 33 30 30 28 25 27 26 25 25 24 23 21 20 19 19 19 20 20 20 21 21 24
21 24 30 31 34 34 34 34 34 41 47 49 50 47 45 45 50 50 45 42 40 39 35 33 31 30 32 31 30 28 28 26 24 23 21 21 21 22 22 21 22 23 24
20 27 31 33 32 31 31 33 33 34 39 46 51 50 50 49 51 51 51 48 44 45 40 37 35 34 36 37 36 34 32 30 29 27 25 23 23 23 23 25 25 25 24
16 19 28 35 35 34 32 28 31 33 30 31 39 42 46 54 54 54 52 51 50 46 35 35 37 39 40 42 42 41 39 37 35 33 31 29 27 26 26 26 27 27 25
25 24 21 24 32 34 33 31 32 30 29 27 25 27 30 34 44 42 47 53 53 53 45 39 40 43 45 48 48 48 46 45 43 40 38 35 32 30 29 29 30 30 23
19 25 26 18 19 26 24 25 28 30 28 25 25 27 29 32 37 41 46 48 46 54 56 49 46 46 48 51 52 53 53 52 49 47 45 42 39 36 33 32 31 31 32
17 16 19 15 7 9 12 11 15 19 21 21 22 24 25 29 34 38 41 41 43 47 51 49 49 48 52 52 53 54 56 58 56 55 52 50 47 42 40 39 37 34 34
19 17 16 17 12 7 9 9 10 14 15 13 17 22 23 23 28 31 34 37 40 42 47 47 48 48 52 52 54 56 58 60 61 62 62 61 56 50 47 45 43 41 39
33 31 29 17 20 11 8 5 5 5 7 6 13 19 20 25 26 23 23 24 27 33 36 39 40 44 46 52 53 59 65 65 66 66 68 68 64 59 56 53 49 47 45
51 52 50 47 39 33 24 20 16 10 3 2 6 12 15 17 22 24 22 21 21 22 26 31 39 42 43 43 50 56 60 63 66 64 72 72 69 67 65 61 57 54 52
54 55 56 55 54 49 41 27 17 11 7 3 5 5 10 16 20 23 25 29 29 28 34 38 37 34 39 43 46 45 25 17 30 28 34 55 69 75 72 68 65 62 60
51 49 51 51 53 53 48 46 44 40 36 31 23 20 20 20 21 23 25 29 31 37 41 44 42 40 40 42 45 49 55 60 69 66 61 48 47 44 58 71 72 69 67
44 45 47 46 46 47 45 47 47 43 38 32 27 24 24 24 22 22 23 22 25 31 34 39 44 48 48 47 45 47 51 56 60 71 79 76 73 68 64 63 59 64 68
34 32 33 30 35 32 29 28 28 25 24 20 21 21 23 22 22 23 25 24 22 23 26 29 28 33 44 50 51 51 51 52 57 63 72 83 84 84 79 75 72 73 68
Wind_Direction_850mb
179 175 182 179 181 179 179 176 179 183 183 181 173 167 168 173 169 143 139 138 96 17 355 29 39 60 124 144 148 148 150 147 138 132 103 101 96 85 90 88 89 79 80
188 177 186 188 189 187 191 195 192 191 190 188 186 186 188 185 180 178 185 212 272 305 342 8 38 60 98 159 185 179 170 167 169 155 131 125 121 90 93 103 103 104 92
186 188 188 196 197 200 203 207 203 205 206 210 211 202 199 203 201 210 224 250 275 282 305 354 60 88 101 127 170 201 204 198 199 197 176 157 119 147 113 118 129 126 119
178 193 194 199 204 207 208 202 203 208 217 227 234 229 219 215 220 231 259 277 288 276 288 283 274 165 176 173 183 195 214 216 224 227 207 275 65 334 230 227 222 186 160
186 190 200 203 208 213 215 213 213 222 230 234 231 225 227 226 230 241 270 278 278 280 259 252 252 252 242 237 221 219 229 225 237 235 244 242 172 345 313 280 237 229 213
222 201 200 209 214 219 221 223 227 233 233 233 232 234 234 229 241 261 271 274 281 282 256 257 258 260 262 254 247 241 242 238 242 246 255 258 251 264 292 358 298 239 221
287 223 212 214 218 223 228 230 233 236 237 237 238 238 250 255 259 263 264 271 285 281 269 266 264 268 266 263 252 249 246 245 244 247 250 257 259 263 262 264 195 198 183
293 243 231 220 221 225 228 230 233 236 238 238 238 236 249 255 260 262 266 274 291 287 280 275 269 270 270 265 256 249 248 247 250 254 257 261 266 265 266 271 275 254 271
308 272 250 237 228 229 233 236 236 236 238 239 238 240 246 252 260 262 269 282 296 297 291 286 280 276 271 259 251 254 254 253 261 267 272 272 273 281 283 282 278 271 268
318 306 279 257 244 238 237 237 239 239 239 239 238 240 246 251 258 262 266 270 282 294 290 287 277 269 255 249 253 259 265 266 270 272 274 276 282 285 285 283 283 281 277
301 294 289 272 255 248 245 244 241 239 239 240 239 240 247 251 254 259 268 269 276 291 283 280 271 264 255 253 257 263 266 267 271 275 279 283 284 284 284 284 281 281 283
292 283 280 282 270 256 251 248 244 241 234 235 237 239 244 251 251 254 260 265 271 279 283 276 269 260 253 254 257 264 269 272 274 275 274 275 280 283 284 283 282 281 279
284 278 271 273 269 263 259 255 250 250 246 235 236 238 241 249 247 249 257 257 265 276 284 282 271 262 256 256 258 262 267 270 273 275 278 281 283 284 283 281 281 280 275
286 268 266 261 260 260 259 260 260 257 257 249 238 239 241 245 246 253 255 257 265 271 276 280 278 265 258 255 256 259 265 270 272 275 279 284 290 292 294 293 289 286 282
280 281 275 267 258 250 259 262 265 265 263 258 254 252 250 249 247 253 259 261 262 270 272 278 278 270 265 261 260 261 262 265 267 270 274 279 284 290 295 298 298 295 294
300 280 273 267 260 241 242 254 264 271 277 272 264 265 259 256 256 267 259 261 265 271 283 279 279 275 266 261 259 260 261 263 263 266 270 274 280 286 288 291 294 294 291
312 311 298 283 258 245 238 241 254 269 280 287 288 277 269 266 254 264 265 267 271 276 279 281 282 281 275 269 264 262 261 261 262 264 267 269 272 275 280 283 285 287 278
306 301 309 304 275 245 236 240 244 256 269 281 295 278 270 267 265 268 270 270 276 278 272 275 278 282 282 276 271 267 264 262 262 261 262 264 266 268 270 273 273 275 274
348 333 316 319 275 230 214 227 233 246 255 260 265 268 268 270 273 275 277 277 278 274 275 274 277 280 287 280 275 270 268 266 263 261 261 261 260 262 265 267 270 270 267
37 37 38 46 62 107 158 177 199 225 234 248 264 263 264 266 265 273 277 279 276 275 272 267 276 281 289 286 280 275 271 268 265 262 260 260 260 260 261 263 266 269 270
67 65 59 56 65 88 114 155 193 235 265 266 301 283 272 269 264 262 266 279 290 287 282 283 283 283 284 289 286 284 282 280 272 265 261 260 261 261 260 260 261 262 263
65 66 65 64 62 61 63 74 78 73 72 170 261 306 312 303 286 286 283 282 281 282 285 290 293 292 285 287 286 292 293 289 284 280 269 264 264 263 262 261 260 260 261
67 62 60 60 60 58 56 54 56 49 55 67 323 300 308 304 301 299 290 288 291 289 283 278 278 288 289 286 287 282 289 291 310 307 294 272 264 260 262 261 260 260 260
65 60 57 52 51 49 46 46 45 48 46 38 25 6 344 327 312 297 283 276 282 285 289 290 290 286 285 283 280 283 284 282 281 289 286 281 294 296 283 269 265 263 261
70 61 58 52 45 41 34 32 29 31 37 41 41 34 25 13 2 349 336 314 294 284 287 287 287 285 281 280 279 278 282 282 282 280 285 286 282 281 280 284 289 279 269
74 61 45 36 28 27 21 23 21 29 25 16 16 16 21 20 23 26 23 7 348 327 316 314 312 303 283 281 278 275 276 283 284 281 284 287 287 284 280 279 277 275 277